Granada, Spain

11:02 PM CET en Noviembre 16, 2018 (GMT +0100)
Granada

Tiempo Historia de LEGR - Noviembre, 2018

Change the Weather History Date:

Viernes, Noviembre 9, 2018

  Actual Average Record
Temperature  
Temperatura media 49 ° F -  
Temperatura máxima 58 ° F 58 ° F 77 ° F (2015)
Temperatura mínima 40 ° F 37 ° F 30 ° F (2000)
Degree Days  
Grados día de calefacción 16    
Moisture  
Punto de rocío 42 ° F    
Average Humidity 77    
Maximum Humidity 100    
Minimum Humidity 45    
Precipitación  
Precipitación 0.00 pul - - ()
Presión al nivel del mar  
Presión al nivel del mar 30.19 pul    
Viento  
Velocidad del viento 4 mph ()    
Velocidad máxima del viento 10 mph    
Max Gust Speed -    
Visibilidad 9.1 Millas    
Eventos Lluvia    
Averages and records for this station are not official NWS values.
T = Trace of Precipitation, MM = Missing Value Source: Averaged Metar Reports

Daily Weather History Graph

Daily Weather History Graph

Search for Another Location

Airport or City:

Astronomía

Nov. 09, 2018 Salida Puesta
Hora real 7:47 AM CET 6:09 PM CET
Crepúsculo civil 7:20 AM CET 6:37 PM CET
Crepúsculo náutico 6:49 AM CET 7:08 PM CET
Crepúsculo astronómico 6:18 AM CET 7:38 PM CET
Luna 9:22 AM CET (11/9) 7:46 PM CET (11/9)
Horas de luz 11h 17m
Horas de luz
10h 22m
Creciente, 4% of the Moon is Illuminated
Nov 9
Creciente
Nov 15
Cuarto creciente
Nov 23
Luna llena
Nov 30
Cuarto menguante
Dic 7
Nueva

Hourly Weather History & Observations

Hora (CET) Temp. Vientos helados Punto de rocío Humedad Presión Visibilidad Wind Dir Velocidad del viento Velocidad de ráfagas Precip Eventos Condiciones
12:00 AM 53.6 ° F - 50.0 ° F 88% 30.09 pul 6.2 mi Oeste 10.4 mph - N/A   Muy nublado
12:30 AM 51.8 ° F - 50.0 ° F 94% 30.09 pul 6.2 mi Oeste 10.4 mph - N/A Lluvia Lluvia débil
1:00 AM 50.0 ° F - 46.4 ° F 87% 30.12 pul 6.2 mi NO 9.2 mph - N/A   Muy nublado
1:30 AM 50.0 ° F - 44.6 ° F 82% 30.12 pul 6.2 mi ONO 10.4 mph - N/A   Parcialmente nublado
2:00 AM 48 ° F - 45 ° F 86% 30.15 pul 16 mi OSO 8.1 mph - -  
2:00 AM 48.2 ° F - 46.4 ° F 93% 30.12 pul 6.2 mi OSO 6.9 mph - N/A   Nubes dispersas
2:30 AM 48.2 ° F - 44.6 ° F 87% 30.12 pul 6.2 mi OSO 9.2 mph - N/A   Desconocido
3:00 AM 46 ° F - 43 ° F 84% 30.17 pul 13 mi ONO 5.8 mph - -  
3:00 AM 46.4 ° F 43.5 ° F 44.6 ° F 93% 30.12 pul 6.2 mi ONO 5.8 mph - N/A   Desconocido
3:30 AM 46.4 ° F 45.2 ° F 42.8 ° F 87% 30.15 pul 6.2 mi ONO 3.5 mph - N/A   Desconocido
4:00 AM 44.6 ° F - 42.8 ° F 93% 30.15 pul 6.2 mi Sin viento Sin viento - N/A   Desconocido
4:30 AM 42.8 ° F - 41.0 ° F 93% 30.15 pul 6.2 mi Sin viento Sin viento - N/A   Desconocido
5:00 AM 42 ° F - 41 ° F 95% 30.21 pul 19 mi SO 2.3 mph - -  
5:30 AM 41.0 ° F - 39.2 ° F 93% 30.18 pul 6.2 mi Sin viento Sin viento - N/A   Desconocido
6:00 AM 40 ° F - 39 ° F 96% 30.24 pul 15 mi SSO 2.3 mph - -  
6:00 AM 41.0 ° F - 39.2 ° F 93% 30.18 pul 6.2 mi Variable 1.2 mph - N/A   Muy nublado
6:30 AM 42.8 ° F 39.3 ° F 41.0 ° F 93% 30.18 pul 6.2 mi SSO 5.8 mph - N/A   Muy nublado
7:00 AM 42 ° F - 40 ° F 91% 30.25 pul 16 mi Norte 2.3 mph - -   Muy nublado
7:00 AM 42.8 ° F - 41.0 ° F 93% 30.18 pul 6.2 mi Variable 1.2 mph - N/A   Muy nublado
7:30 AM 41.0 ° F - 41.0 ° F 100% 30.18 pul 6.2 mi Sin viento Sin viento - N/A   Muy nublado
8:00 AM 41.0 ° F - 39.2 ° F 93% 30.21 pul 6.2 mi Sin viento Sin viento - N/A   Nubes dispersas
8:30 AM 41.0 ° F - 39.2 ° F 93% 30.21 pul 5.6 mi Sin viento Sin viento - N/A   Nubes dispersas
9:00 AM 42 ° F - 41 ° F 96% 30.28 pul 8 mi SO 2.3 mph - -  
9:00 AM 42.8 ° F - 41.0 ° F 93% 30.21 pul 5.6 mi Variable 1.2 mph - N/A   Nubes dispersas
9:30 AM 46.4 ° F - 46.4 ° F 100% 30.24 pul 6.2 mi Sin viento Sin viento - N/A   Nubes dispersas
10:00 AM 48 ° F - 44 ° F 82% 30.27 pul 12 mi Sin viento Sin viento - -   Parcialmente nublado
10:00 AM 48.2 ° F - 44.6 ° F 87% 30.24 pul 6.2 mi Sin viento Sin viento - N/A   Nubes dispersas
10:30 AM 50.0 ° F - 44.6 ° F 82% 30.24 pul 6.2 mi Variable 1.2 mph - N/A   Nubes dispersas
11:00 AM 51 ° F - 40 ° F 57% 30.26 pul 19 mi ONO 2.3 mph - -  
11:00 AM 50.0 ° F - 39.2 ° F 66% 30.24 pul 6.2 mi Variable 2.3 mph - N/A   Nubes dispersas
12:00 PM 54 ° F - 40 ° F 48% 30.25 pul 19 mi Sur 1.2 mph - -  
12:30 PM 53.6 ° F - 39.2 ° F 58% 30.24 pul 6.2 mi Variable 2.3 mph - N/A   Nubes dispersas
1:00 PM 55 ° F - 40 ° F 46% 30.22 pul 19 mi OSO 2.3 mph - -   Parcialmente nublado
1:00 PM 55.4 ° F - 39.2 ° F 54% 30.21 pul 6.2 mi Variable 1.2 mph - N/A   Nubes dispersas
1:30 PM 55.4 ° F - 41.0 ° F 58% 30.21 pul 6.2 mi Variable 1.2 mph - N/A   Nubes dispersas
2:00 PM 57.2 ° F - 41.0 ° F 55% 30.18 pul 6.2 mi Variable 2.3 mph - N/A   Nubes dispersas
2:30 PM 57.2 ° F - 41.0 ° F 55% 30.18 pul 6.2 mi Variable 2.3 mph - N/A   Nubes dispersas
3:00 PM 56 ° F - 40 ° F 45% 30.17 pul 19 mi NO 3.5 mph - -  
3:00 PM 57.2 ° F - 41.0 ° F 55% 30.18 pul 6.2 mi Variable 2.3 mph - N/A   Nubes dispersas
3:30 PM 57.2 ° F - 41.0 ° F 55% 30.15 pul 6.2 mi Oeste 5.8 mph - N/A   Parcialmente nublado
4:00 PM 57.2 ° F - 41.0 ° F 55% 30.15 pul 6.2 mi Variable 2.3 mph - N/A   Parcialmente nublado
4:30 PM 59.0 ° F - 41.0 ° F 51% 30.15 pul 6.2 mi Variable 1.2 mph - N/A   Parcialmente nublado
5:00 PM 59.0 ° F - 41.0 ° F 51% 30.15 pul 6.2 mi Sin viento Sin viento - N/A   Parcialmente nublado
5:30 PM 55.4 ° F - 41.0 ° F 58% 30.15 pul 6.2 mi ONO 4.6 mph - N/A   Parcialmente nublado
6:00 PM 53.6 ° F - 41.0 ° F 62% 30.15 pul 6.2 mi NNE 4.6 mph - N/A   Parcialmente nublado
6:30 PM 51.8 ° F - 41.0 ° F 67% 30.18 pul 6.2 mi Variable 1.2 mph - N/A   Parcialmente nublado
7:00 PM 51 ° F - 40 ° F 55% 30.21 pul 19 mi Norte 6.9 mph - -   Nubes dispersas
7:00 PM 51.8 ° F - 41.0 ° F 67% 30.18 pul 6.2 mi Norte 6.9 mph - N/A   Parcialmente nublado
7:30 PM 50.0 ° F - 41.0 ° F 71% 30.21 pul 6.2 mi Norte 6.9 mph - N/A   Parcialmente nublado
8:00 PM 49 ° F - 40 ° F 62% 30.24 pul 19 mi Norte 3.5 mph - -  
8:00 PM 50.0 ° F - 41.0 ° F 71% 30.21 pul 6.2 mi Norte 2.3 mph - N/A   Parcialmente nublado
8:30 PM 48.2 ° F - 41.0 ° F 76% 30.21 pul 6.2 mi NNO 3.5 mph - N/A   Parcialmente nublado
9:00 PM 47 ° F - 41 ° F 74% 30.24 pul 17 mi Sin viento Sin viento - -  
9:00 PM 46.4 ° F - 41.0 ° F 81% 30.21 pul 6.2 mi Sin viento Sin viento - N/A   Parcialmente nublado
9:30 PM 46.4 ° F 44.3 ° F 42.8 ° F 87% 30.21 pul 6.2 mi Oeste 4.6 mph - N/A   Parcialmente nublado
10:00 PM 46 ° F - 42 ° F 80% 30.27 pul 19 mi Oeste 3.5 mph - -   Despejado
10:00 PM 46.4 ° F 44.3 ° F 42.8 ° F 87% 30.24 pul - Oeste 4.6 mph - N/A   Despejado
10:30 PM 46.4 ° F - 42.8 ° F 87% 30.24 pul - NO 2.3 mph - N/A   Despejado
11:00 PM 46 ° F - 43 ° F 84% 30.27 pul 16 mi SSO 3.5 mph - -  
11:00 PM 46.4 ° F 45.2 ° F 42.8 ° F 87% 30.24 pul - SO 3.5 mph - N/A   Despejado
11:30 PM 46.4 ° F - 42.8 ° F 87% 30.21 pul - Sin viento Sin viento - N/A   Despejado